Wind_Speed
9 9 10 10 9 9 6 6 6 6 6 5 5 4 3 2 2 3 3 3 3 3 4 5 4 4 5 5 6 6 7 7 7 7 7 7 7 7 7 6 6 6 6 6 7 7 7 8 8
6 7 7 8 10 5 3 4 5 6 6 5 5 4 3 3 2 2 2 1 1 1 2 2 2 3 3 4 5 6 6 6 6 6 6 6 5 5 5 4 4 4 4 4 4 5 5 6 6
5 4 4 6 6 3 2 1 2 4 5 5 5 4 3 2 2 1 0 1 1 1 1 2 2 3 4 5 6 7 7 7 6 6 5 5 5 4 4 3 3 2 2 3 3 3 3 3 4
4 3 1 2 2 3 3 3 2 2 3 4 4 3 3 2 1 0 1 2 3 3 3 3 4 6 6 7 7 8 8 8 8 7 7 6 5 5 4 4 3 3 3 3 4 3 3 3 3
7 5 3 2 3 2 4 4 4 3 3 3 3 3 2 2 2 2 2 3 4 4 4 5 6 7 8 9 9 9 10 10 9 9 8 8 7 7 6 6 5 5 5 5 6 6 5 5 5
10 8 7 7 7 5 5 5 5 5 4 3 3 3 3 3 3 3 4 4 5 5 5 6 7 8 9 10 10 10 11 11 11 10 10 10 10 9 9 8 8 8 8 8 8 8 8 8 8
14 13 12 11 10 8 6 6 7 7 6 4 3 3 3 3 3 3 4 5 5 6 6 7 9 9 10 11 11 11 12 12 12 12 12 12 12 12 12 12 11 11 11 11 11 11 11 11 11
17 15 15 14 13 11 8 7 7 7 6 5 4 3 3 3 3 4 5 5 6 8 9 10 11 12 13 13 13 14 14 14 14 14 14 15 15 15 15 15 15 15 15 15 14 14 14 14 14
19 18 17 17 15 13 10 8 8 8 7 6 5 5 5 5 6 6 7 8 10 11 13 13 15 16 17 18 18 18 18 18 18 18 18 18 18 19 19 19 19 19 19 19 19 18 18 18 18
20 19 20 19 16 15 12 10 10 9 8 8 8 8 8 8 9 10 11 12 14 15 16 17 19 20 21 22 22 22 22 22 23 23 23 23 23 23 23 23 23 23 23 23 23 22 22 22 22
21 22 22 19 18 16 15 13 11 10 10 10 10 10 11 12 13 14 15 17 18 19 20 22 23 24 24 25 25 26 26 26 26 26 26 27 27 28 28 28 28 28 27 27 27 26 26 25 25
23 23 22 20 19 18 17 16 14 13 14 12 12 12 14 15 17 18 19 21 22 23 24 25 26 26 27 27 28 28 29 29 30 30 29 30 31 31 32 32 33 33 32 32 32 31 31 30 29
26 24 23 22 21 20 19 18 17 17 16 15 15 16 17 18 20 22 23 24 25 26 27 28 28 28 28 29 30 30 30 31 32 32 32 32 33 34 34 35 35 35 36 36 36 36 35 35 34
28 26 25 25 24 23 21 21 20 20 20 20 20 20 21 23 24 26 27 28 29 30 30 30 30 29 30 30 30 30 31 31 31 32 32 33 33 34 35 35 36 38 39 40 40 39 39 38 37
30 28 27 27 27 26 24 24 25 23 23 23 24 24 25 27 28 29 30 31 32 32 33 32 31 31 31 31 31 31 30 30 30 31 31 32 33 33 34 34 34 36 38 39 41 42 42 41 40
30 29 28 31 30 29 27 27 30 27 27 27 28 28 29 30 31 32 32 33 34 34 34 34 32 32 32 32 32 32 31 31 30 30 30 31 32 32 32 33 33 35 36 37 39 40 41 42 42
29 30 30 33 33 32 31 32 34 30 30 31 31 31 32 32 33 33 34 35 35 35 35 34 33 33 33 33 33 32 30 29 28 28 28 29 30 30 31 31 32 33 35 37 38 39 41 41 42
27 29 31 34 35 34 34 36 36 35 34 34 34 34 33 33 34 34 34 35 35 36 36 35 34 33 33 33 32 31 29 28 27 27 27 28 29 29 30 30 31 33 34 36 37 38 40 41 41
26 27 28 33 34 34 36 36 37 36 36 36 35 34 33 33 34 34 34 35 35 36 35 35 34 34 34 33 31 29 28 27 27 27 27 27 27 28 29 29 30 32 34 34 36 37 39 39 40
20 21 24 29 31 32 34 34 35 35 35 34 33 33 32 32 33 34 34 35 36 36 36 36 36 35 34 33 31 29 28 27 27 26 25 25 26 27 28 28 29 31 32 33 34 36 37 37 38
13 15 18 22 25 27 29 28 31 31 31 31 31 31 31 32 32 33 34 35 36 37 37 36 36 35 34 33 31 29 28 27 27 26 26 25 26 26 27 28 29 30 32 32 34 36 37 37 37
9 14 16 18 18 18 22 17 25 27 27 28 29 29 30 31 32 34 34 35 35 36 36 36 35 35 34 34 32 31 30 29 28 28 27 27 26 27 27 28 29 30 31 32 34 35 37 37 37
11 13 14 16 16 16 18 16 19 25 24 26 27 27 28 29 31 32 33 34 34 34 35 35 35 36 36 35 34 32 31 30 29 28 28 28 27 27 28 28 29 30 31 32 33 35 36 37 38
11 12 12 12 12 12 15 13 15 20 20 22 23 24 25 26 27 29 31 32 33 34 35 35 36 37 36 36 35 33 32 32 31 30 30 30 29 29 29 29 29 30 31 32 33 34 35 36 37
10 9 9 10 9 11 15 13 16 17 17 18 19 21 23 24 26 27 29 32 33 34 36 37 37 37 37 37 36 34 34 33 33 32 32 31 31 31 30 30 30 31 31 32 32 34 35 35 36
10 9 9 10 10 12 16 15 17 17 17 18 20 21 23 25 27 29 31 33 34 36 37 37 38 38 38 38 37 36 36 35 35 35 34 33 33 32 32 32 32 32 32 32 33 33 34 35 35
9 9 11 12 12 13 13 19 19 19 20 21 22 23 25 27 29 31 33 34 36 37 38 39 39 39 39 39 39 38 38 38 37 37 36 36 35 34 33 33 33 33 33 33 33 33 34 34 34
10 11 12 13 14 13 15 18 22 21 22 23 26 28 30 32 33 34 35 37 38 39 41 41 42 42 43 42 42 42 41 40 39 39 38 37 37 36 35 34 34 34 34 33 34 33 33 33 33
14 14 14 15 17 17 17 21 25 25 26 29 30 32 34 36 37 39 40 41 42 43 44 45 45 46 46 46 46 45 45 44 43 42 41 39 38 37 36 35 35 35 34 34 34 34 33 32 32
15 17 18 19 20 22 22 27 25 28 30 32 33 35 36 38 39 41 42 43 44 46 47 48 49 50 50 51 50 50 49 49 48 46 44 42 41 39 37 36 36 35 35 34 34 33 33 32 31
Wind_Direction
95 81 73 72 74 74 100 128 140 143 145 143 145 146 144 130 114 101 88 83 77 72 64 59 52 40 29 14 6 9 16 24 31 38 43 48 53 57 56 56 60 65 70 72 70 69 68 67 67
108 91 78 68 71 57 68 123 143 142 138 137 139 143 141 130 120 109 99 94 90 76 57 45 29 8 358 346 338 342 349 359 7 13 19 25 33 37 40 42 44 47 49 52 56 58 58 58 60
143 119 84 62 63 40 21 68 155 145 140 140 141 145 147 138 117 118 134 234 254 268 299 321 322 316 315 316 316 319 325 332 338 343 346 351 359 5 8 11 10 6 3 0 4 16 28 34 38
191 178 136 56 25 9 354 330 287 192 156 155 153 154 155 157 161 210 271 274 277 279 283 294 300 299 298 299 301 304 310 315 318 319 320 320 323 327 330 330 325 318 314 315 316 320 328 335 345
230 227 235 262 271 317 345 330 297 263 220 188 186 188 196 196 212 238 269 282 284 283 285 290 294 295 295 296 296 299 302 305 306 307 307 305 304 303 304 304 302 299 296 295 295 297 299 302 304
240 242 244 249 261 275 303 311 302 276 247 228 222 224 231 238 247 259 270 280 284 284 286 289 292 293 293 294 295 297 299 301 302 301 300 299 297 295 293 292 291 290 288 286 285 285 286 289 289
244 243 247 252 262 268 282 295 297 284 265 245 236 237 243 247 261 269 278 286 291 292 294 295 295 295 294 295 295 296 297 298 298 297 296 294 292 291 290 288 287 286 283 280 278 280 281 281 281
249 249 252 255 259 262 269 282 291 287 271 255 243 248 255 261 272 279 289 298 303 303 301 299 298 298 296 297 298 297 297 297 296 294 293 292 290 289 287 286 285 284 282 279 277 277 277 277 276
250 250 252 253 255 258 260 269 279 282 270 260 255 260 265 278 283 289 294 298 301 302 301 299 297 296 295 294 294 293 293 293 292 291 290 289 289 287 286 284 282 282 281 279 277 275 275 275 274
248 248 249 254 256 257 257 262 270 274 269 265 266 270 277 283 287 290 296 300 301 301 299 297 296 295 294 294 293 292 292 291 290 289 289 288 287 286 285 283 282 279 278 277 276 275 274 274 273
248 248 253 256 256 255 256 256 259 265 265 266 270 274 277 283 287 291 295 298 299 300 299 297 295 294 293 293 292 291 291 289 288 287 287 286 285 284 283 281 280 278 276 275 274 274 273 272 272
247 249 252 254 254 254 254 254 254 257 261 266 271 274 279 285 290 293 296 299 299 300 299 297 296 294 293 293 292 291 290 289 287 287 286 285 283 282 281 280 278 276 274 273 273 272 272 271 272
245 247 250 251 252 252 254 254 255 257 261 265 270 275 279 284 288 292 295 298 299 299 299 298 296 295 294 293 292 290 290 289 286 286 287 287 285 283 281 279 279 276 273 271 270 270 270 270 271
246 247 248 250 251 252 254 256 257 258 262 267 272 276 280 284 287 290 293 295 297 297 298 298 298 296 295 295 293 292 291 291 289 289 288 287 286 284 281 280 279 277 274 270 268 267 268 268 269
246 245 246 248 250 252 254 257 258 259 262 266 270 274 278 281 284 287 290 292 293 295 297 297 297 297 296 295 295 296 294 292 291 291 291 289 287 285 282 282 282 280 279 274 270 268 266 266 267
246 245 244 247 248 251 253 255 259 260 263 266 269 272 275 278 280 283 286 288 290 292 294 295 296 297 296 296 296 296 295 294 293 292 291 290 289 287 285 284 283 283 282 279 274 272 271 270 269
245 243 241 247 248 250 251 252 260 263 264 266 269 271 273 275 276 279 282 284 287 290 291 293 295 296 296 296 295 295 296 296 294 294 292 291 290 289 288 287 285 283 283 282 279 275 272 272 272
244 242 244 246 250 251 252 254 259 262 263 266 268 270 271 272 273 276 279 282 284 286 288 291 293 295 296 296 296 295 295 295 294 294 294 293 292 291 290 290 289 287 286 284 282 279 275 274 273
248 247 247 250 252 253 255 258 260 262 264 266 267 268 269 270 272 274 277 279 282 285 287 290 291 294 295 295 296 296 295 294 295 296 296 295 294 293 293 294 293 290 289 287 284 281 279 277 277
251 250 252 255 255 256 258 261 264 265 266 267 268 267 267 268 270 273 275 278 281 284 286 288 291 293 295 294 294 295 296 296 296 297 298 297 296 295 295 295 294 292 290 289 286 284 282 280 279
259 254 255 260 264 265 266 270 271 270 270 269 268 268 269 270 271 273 275 277 280 283 286 288 291 293 294 294 295 295 296 297 298 297 298 298 298 299 298 296 295 293 291 289 287 285 283 282 280
277 269 269 271 272 271 271 267 277 275 273 272 271 270 270 271 272 273 275 277 280 283 286 288 290 291 292 294 295 296 297 297 297 296 296 297 299 300 301 300 298 297 294 291 289 287 284 282 280
276 282 281 281 279 276 279 271 269 278 276 274 274 273 273 273 274 276 277 280 282 283 284 285 288 289 290 292 294 295 295 296 296 295 295 296 297 299 301 301 300 299 296 293 291 288 285 282 279
291 294 298 301 298 286 277 274 266 277 280 278 278 277 276 276 277 278 279 280 281 282 282 284 286 288 290 291 293 293 293 294 294 294 294 295 296 298 299 299 299 300 299 296 292 290 288 284 279
301 305 311 307 300 284 287 283 269 283 285 283 281 280 279 279 278 278 278 278 279 281 282 284 286 287 289 290 291 291 292 292 292 291 292 292 294 296 297 298 298 299 299 298 295 292 289 286 281
290 291 287 279 277 278 294 290 286 288 287 285 283 281 279 278 278 278 279 279 280 281 283 284 286 287 288 289 290 290 290 290 290 290 290 290 291 293 295 295 296 297 298 299 298 295 291 288 284
301 293 283 288 290 289 284 286 289 287 287 285 283 281 280 280 280 280 280 280 281 282 282 283 285 286 287 288 289 289 289 289 288 288 289 289 289 290 292 293 294 295 297 298 298 297 295 291 286
304 301 298 295 291 288 289 292 290 292 288 285 283 283 282 282 282 281 280 280 281 281 281 282 283 284 285 286 287 287 288 288 288 288 288 288 287 288 289 290 291 293 295 296 297 297 296 293 289
309 307 304 300 296 294 289 284 290 293 290 288 286 285 285 284 283 282 281 281 281 281 281 282 282 283 283 284 284 284 285 286 286 286 287 286 286 286 286 288 289 290 292 294 295 296 296 293 290
308 308 307 305 303 302 301 293 297 294 292 291 290 289 287 285 284 283 282 282 281 281 281 282 282 282 282 282 283 283 283 283 284 284 284 284 284 284 284 286 287 288 290 291 292 294 294 293 290
Height
5931 5931 5932 5933 5934 5936 5935 5935 5934 5934 5934 5934 5933 5933 5933 5933 5934 5935 5933 5931 5931 5930 5929 5928 5928 5927 5927 5926 5925 5923 5922 5921 5919 5918 5917 5916 5915 5914 5913 5912 5911 5910 5909 5908 5907 5906 5905 5904 5903
5932 5933 5934 5935 5937 5938 5936 5936 5935 5934 5934 5934 5933 5933 5933 5932 5932 5932 5931 5931 5930 5930 5929 5928 5928 5927 5926 5926 5925 5923 5922 5921 5919 5918 5917 5916 5915 5914 5913 5912 5911 5910 5909 5908 5907 5906 5905 5904 5903
5933 5934 5936 5936 5937 5937 5937 5936 5935 5934 5934 5933 5933 5933 5933 5932 5932 5931 5931 5930 5930 5929 5928 5928 5927 5927 5926 5925 5924 5923 5922 5921 5919 5918 5917 5916 5915 5914 5913 5912 5911 5910 5909 5908 5907 5906 5905 5904 5903
5934 5935 5937 5938 5937 5937 5936 5936 5935 5934 5934 5933 5933 5932 5932 5931 5931 5931 5930 5930 5929 5928 5927 5927 5926 5926 5925 5924 5923 5922 5921 5920 5919 5917 5916 5915 5914 5913 5912 5911 5910 5910 5909 5907 5906 5905 5904 5903 5903
5934 5936 5937 5938 5937 5937 5936 5935 5935 5934 5933 5933 5932 5931 5931 5930 5930 5929 5929 5928 5928 5927 5926 5926 5925 5925 5924 5923 5922 5921 5920 5919 5917 5916 5915 5914 5913 5912 5911 5910 5909 5908 5908 5907 5906 5905 5904 5903 5902
5934 5935 5938 5938 5937 5937 5936 5935 5934 5934 5933 5932 5931 5931 5930 5929 5929 5928 5928 5927 5926 5926 5925 5924 5924 5923 5922 5921 5920 5919 5918 5917 5916 5915 5913 5912 5912 5911 5910 5909 5908 5907 5906 5905 5904 5903 5902 5902 5901
5933 5934 5935 5936 5936 5936 5936 5935 5934 5933 5932 5931 5930 5930 5929 5928 5927 5927 5926 5926 5925 5924 5924 5923 5922 5921 5920 5919 5918 5917 5916 5915 5914 5913 5911 5910 5910 5909 5908 5907 5906 5905 5904 5903 5902 5902 5901 5900 5899
5929 5932 5933 5934 5934 5935 5935 5934 5933 5932 5931 5930 5930 5929 5928 5927 5926 5926 5925 5924 5924 5923 5922 5922 5921 5920 5919 5918 5916 5915 5914 5913 5911 5910 5909 5908 5907 5906 5905 5904 5903 5902 5901 5900 5899 5899 5898 5898 5897
5926 5930 5931 5931 5932 5932 5933 5933 5932 5931 5930 5929 5928 5928 5927 5926 5925 5924 5924 5923 5922 5922 5921 5920 5919 5917 5916 5915 5914 5912 5911 5910 5908 5907 5906 5905 5903 5902 5901 5900 5899 5899 5898 5897 5896 5895 5895 5894 5894
5924 5926 5927 5927 5929 5930 5930 5930 5930 5930 5929 5928 5927 5927 5926 5925 5924 5923 5922 5921 5921 5920 5918 5917 5916 5915 5913 5912 5910 5909 5907 5906 5905 5903 5902 5901 5899 5898 5897 5896 5895 5894 5893 5892 5892 5891 5890 5890 5889
5920 5922 5922 5924 5925 5926 5927 5928 5928 5928 5927 5927 5926 5925 5924 5923 5922 5921 5920 5919 5918 5917 5915 5914 5912 5911 5909 5908 5906 5904 5903 5902 5900 5899 5898 5896 5895 5893 5892 5891 5890 5889 5888 5887 5886 5886 5885 5885 5884
5916 5917 5918 5920 5921 5922 5923 5924 5925 5925 5925 5924 5923 5922 5921 5920 5919 5918 5917 5916 5915 5913 5912 5910 5908 5906 5905 5903 5901 5899 5898 5896 5895 5893 5892 5890 5889 5888 5886 5885 5884 5883 5882 5881 5880 5880 5879 5878 5878
5912 5913 5914 5915 5917 5918 5919 5920 5921 5921 5921 5921 5920 5919 5918 5917 5916 5914 5913 5912 5910 5909 5907 5905 5903 5901 5899 5898 5896 5894 5892 5890 5888 5887 5885 5884 5882 5881 5879 5878 5877 5875 5874 5873 5872 5872 5872 5871 5871
5907 5909 5910 5911 5912 5913 5915 5916 5916 5917 5917 5917 5916 5915 5914 5913 5912 5910 5909 5907 5906 5904 5902 5900 5898 5896 5894 5892 5890 5888 5886 5884 5882 5880 5878 5877 5875 5873 5872 5871 5869 5868 5866 5865 5864 5863 5863 5863 5863
5901 5904 5905 5906 5907 5909 5911 5912 5911 5912 5912 5912 5912 5911 5910 5909 5907 5906 5904 5903 5900 5898 5896 5894 5892 5890 5888 5886 5883 5881 5879 5877 5875 5873 5871 5869 5867 5866 5864 5863 5861 5859 5857 5856 5855 5854 5854 5854 5853
5896 5899 5901 5901 5902 5903 5908 5908 5905 5907 5907 5907 5907 5906 5905 5904 5902 5901 5899 5897 5895 5893 5891 5888 5886 5884 5881 5879 5877 5875 5873 5871 5869 5866 5864 5862 5860 5858 5857 5855 5854 5852 5849 5847 5846 5845 5845 5845 5844
5891 5894 5895 5895 5896 5898 5901 5901 5899 5901 5901 5901 5901 5901 5900 5898 5897 5895 5894 5892 5889 5887 5885 5882 5880 5877 5875 5873 5870 5868 5866 5864 5861 5859 5857 5855 5853 5851 5849 5848 5846 5843 5841 5839 5838 5837 5836 5835 5834
5886 5888 5889 5889 5889 5892 5894 5894 5894 5894 5895 5895 5895 5894 5893 5892 5891 5889 5888 5886 5883 5881 5878 5876 5873 5871 5869 5867 5864 5861 5859 5857 5855 5853 5850 5848 5846 5843 5841 5839 5838 5835 5833 5831 5829 5828 5827 5827 5826
5880 5882 5883 5883 5884 5886 5886 5887 5887 5887 5888 5888 5888 5887 5887 5886 5884 5883 5881 5879 5877 5874 5871 5869 5866 5864 5862 5860 5858 5855 5853 5851 5848 5846 5843 5841 5839 5836 5833 5831 5830 5827 5825 5823 5821 5820 5819 5818 5816
5876 5878 5879 5878 5878 5880 5880 5880 5880 5880 5880 5881 5880 5880 5880 5879 5877 5876 5874 5872 5870 5867 5864 5862 5860 5857 5855 5853 5851 5849 5846 5844 5841 5839 5836 5834 5832 5829 5827 5824 5822 5820 5817 5815 5813 5811 5810 5809 5807
5873 5875 5874 5874 5874 5875 5875 5876 5874 5874 5873 5874 5873 5873 5873 5872 5870 5869 5867 5865 5862 5860 5857 5855 5853 5851 5849 5846 5844 5842 5839 5837 5834 5832 5830 5827 5825 5822 5820 5817 5815 5812 5809 5807 5805 5803 5801 5800 5799
5872 5870 5870 5870 5871 5872 5871 5874 5869 5867 5867 5867 5866 5866 5865 5864 5863 5861 5859 5857 5855 5853 5850 5848 5846 5844 5841 5839 5837 5835 5832 5830 5827 5825 5823 5820 5818 5815 5813 5810 5807 5804 5801 5799 5797 5794 5792 5791 5790
5868 5867 5866 5866 5866 5867 5866 5868 5868 5862 5861 5860 5859 5859 5858 5857 5855 5854 5851 5849 5847 5845 5843 5841 5838 5836 5834 5832 5830 5827 5825 5823 5820 5818 5815 5813 5810 5808 5805 5802 5799 5796 5793 5790 5788 5786 5783 5781 5780
5864 5864 5863 5863 5863 5864 5862 5863 5863 5857 5856 5854 5853 5852 5851 5850 5848 5846 5844 5842 5840 5838 5836 5833 5831 5828 5826 5824 5822 5820 5818 5815 5813 5811 5808 5805 5803 5800 5798 5795 5792 5789 5785 5782 5779 5777 5774 5772 5771
5862 5863 5864 5864 5864 5862 5858 5857 5856 5852 5851 5849 5848 5846 5845 5843 5841 5839 5837 5835 5833 5830 5828 5825 5823 5820 5818 5816 5814 5812 5810 5807 5805 5803 5800 5798 5795 5792 5790 5787 5784 5781 5778 5774 5771 5768 5765 5763 5761
5860 5860 5861 5861 5861 5859 5855 5853 5851 5848 5846 5844 5842 5840 5839 5837 5835 5833 5830 5828 5825 5822 5820 5817 5815 5812 5809 5807 5805 5803 5801 5798 5796 5794 5792 5789 5787 5784 5781 5779 5776 5773 5769 5766 5763 5760 5757 5754 5752
5858 5857 5856 5855 5855 5854 5853 5849 5846 5843 5841 5839 5837 5835 5832 5830 5828 5825 5822 5820 5817 5814 5811 5808 5806 5803 5800 5798 5796 5793 5791 5789 5787 5784 5782 5780 5777 5775 5772 5770 5767 5764 5761 5758 5754 5751 5748 5745 5743
5856 5854 5853 5852 5851 5851 5850 5847 5843 5838 5836 5833 5831 5828 5825 5823 5820 5817 5814 5811 5808 5805 5802 5799 5796 5793 5790 5788 5785 5783 5780 5778 5776 5774 5771 5769 5767 5765 5763 5760 5758 5755 5752 5749 5746 5742 5739 5736 5733
5853 5851 5849 5848 5847 5845 5845 5844 5837 5834 5830 5827 5824 5821 5817 5814 5811 5808 5804 5801 5798 5795 5791 5788 5785 5782 5779 5776 5774 5771 5769 5766 5764 5762 5760 5758 5756 5754 5753 5750 5748 5746 5743 5740 5737 5734 5730 5728 5725
5850 5848 5846 5845 5842 5839 5837 5837 5831 5827 5823 5820 5816 5812 5809 5805 5801 5797 5793 5790 5786 5782 5779 5775 5772 5769 5766 5763 5760 5757 5755 5753 5751 5749 5748 5746 5745 5743 5741 5740 5738 5736 5733 5731 5728 5725 5722 5719 5716